COMPASS
1 32787U 08021E 14212.61555711 .00002007 00000-0 22366-3 0 9989
2 32787 097.6985 264.8721 0014254 041.0455 319.1832 14.88092857338797
AAUSAT2
1 32788U 08021F 14212.12782794 .00001954 00000-0 21408-3 0 9840
2 32788 097.6995 265.4396 0013658 040.9114 319.3125 14.88814662338783
DO-64
1 32789U 08021G 14212.78150078 .00004796 00000-0 45716-3 0 258
2 32789 097.7173 273.0110 0012000 023.7824 115.0704 14.93767959339157
CO-66
1 32791U 08021J 14211.67030200 .00001286 00000-0 15031-3 0 9798
2 32791 097.6980 262.6280 0015085 047.2555 312.9928 14.86713488338510
RS-30
1 32953U 08025A 14212.90075882 .00000010 00000-0 00000 0 0 1572
2 32953 082.5079 173.4103 0020619 059.2719 301.0389 12.43049496280810
METEOR-M
1 35865U 09049A 14212.69742009 -.00000023 00000-0 90201-5 0 7627
2 35865 098.5462 258.7536 0002387 349.4452 010.6658 14.21926108252661
RS-38
1 35869U 09049E 14212.75117767 .00000019 00000-0 27570-4 0 6772
2 35869 098.5398 258.5857 0003760 337.2515 161.0573 14.22219173252708
JUGNU
1 37839U 11058B 14211.78188123 .00000363 00000-0 52118-4 0 6644
2 37839 019.9622 350.7225 0019061 103.9751 044.1522 14.12322072144728
SRMSAT
1 37841U 11058D 14211.83894775 .00000339 00000-0 41929-4 0 6685
2 37841 019.9731 010.5743 0012081 042.8202 104.8277 14.10361604144537
RAX-2
1 37853U 11061D 14212.13690154 .00002583 00000-0 18344-3 0 8747
2 37853 101.7102 262.7564 0215071 289.5762 132.4493 14.89827257149202
AUBIESAT
1 37854U 11061E 14211.76006411 .00002803 00000-0 19226-3 0 8535
2 37854 101.7151 264.2149 0212831 287.5871 195.9520 14.91177719149202
HRBE
1 37855U 11061F 14212.77061457 .00003214 00000-0 22153-3 0 8641
2 37855 101.7149 265.0037 0214921 286.0779 166.8271 14.90477230149321
RS-39
1 38051U 11062C 14212.82207437 .00088705 00000-0 84934-3 0 7717
2 38051 051.6255 357.1587 0005666 332.5596 174.9498 15.65909205141094
E-STAR
1 38079U 12006C 14212.09832104 .00065860 44984-5 69698-3 0 9173
2 38079 069.4505 235.3202 0351608 291.1912 065.2046 15.14397609130094
GOLIAT
1 38085U 12006J 14212.53089827 .00068441 44840-5 77213-3 0 2348
2 38085 069.4525 242.3393 0376513 294.6563 061.5821 15.08040698129942
HORYU-2
1 38340U 12025D 14212.86665011 .00001209 00000-0 19784-3 0 9254
2 38340 098.2653 170.8302 0013412 036.2574 323.9580 14.72634875118379
RS-40
1 38735U 12041C 14212.57000106 .00000024 00000-0 10000-3 0 6361
2 38735 082.4755 259.8680 0017650 154.5451 205.6508 12.42561095 91091
PROITERES
1 38756U 12047B 14212.76061003 .00000555 00000-0 90344-4 0 648
2 38756 098.2282 301.7855 0011653 236.8764 123.1327 14.75018573101757
BEESAT-3
1 39134U 13015E 14212.55858252 .00002332 00000-0 15877-3 0 6606
2 39134 064.8767 358.0630 0031922 300.2506 059.5955 15.05643084 70346
BEESAT-2
1 39136U 13015G 14212.84062246 .00002595 00000-0 19270-3 0 6433
2 39136 064.8709 357.7934 0031167 299.7513 060.0513 15.04982634 70374
LO-75
1 39382U 13064C 14212.28655340 .00058918 00000-0 10241-2 0 3469
2 39382 040.4913 187.7596 0018685 203.5631 156.5491 15.49696844 38894
ZACUBE-1
1 39417U 13066B 14212.17196344 .00001062 00000-0 14856-3 0 3636
2 39417 097.7723 281.2783 0063472 099.8972 260.9427 14.78209379 37198
TRITON-1
1 39427U 13066M 14212.22796176 .00000682 00000-0 12162-3 0 2164
2 39427 097.7616 276.2578 0118839 110.0356 251.3716 14.65478534 36849
DELFIN3XT
1 39428U 13066N 14212.00827350 .00001098 00000-0 19615-3 0 2195
2 39428 097.7599 275.1504 0129621 113.1488 248.3453 14.63430376 36741
GOMX-1
1 39430U 13066Q 14212.74451613 .00000757 00000-0 15136-3 0 6890
2 39430 097.7538 273.3919 0157558 117.5652 244.1664 14.56911241 36709
MO-76
1 39436U 13066W 14211.73699891 .00006549 00000-0 66531-3 0 2825
2 39436 097.7770 284.6981 0027893 105.6406 254.7950 14.90857596 37368
LO-74
1 39440U 13066AA 14212.75896027 .00000825 00000-0 12835-3 0 2169
2 39440 097.7696 279.8314 0085301 101.5187 259.5642 14.73150554 37143
PUCPSAT-1
1 39442U 13066AC 14212.26788476 .00001196 00000-0 14072-3 0 2140
2 39442 097.7777 284.4858 0035785 100.0839 260.4461 14.86233180 36172
SHINAISAT
1 39572U 14009A 14212.63412162 .00039484 00000-0 28400-3 0 2117
2 39572 065.0068 248.2432 0020558 288.6767 071.2677 15.72933478 24096
OPUSAT
1 39575U 14009D 14205.03098383 .10394079 79053-5 15280-3 0 2959
2 39575 064.9843 263.3854 0017888 326.7083 036.3105 16.47207532 23119
TEIKYOSAT
1 39576U 14009E 14212.80022231 .00070218 00000-0 40579-3 0 2205
2 39576 065.0056 245.4369 0021066 298.9436 061.0127 15.77907076 24162
CO-77
1 39577U 14009F 14212.56066470 .00198063 21435-4 57181-3 0 2454
2 39577 065.0005 241.6319 0021283 299.0652 060.8418 15.92457935 24210
STARS-II
1 39579U 14009H 14116.06110564 .20186783 77451-5 52661-3 0 1329
2 39579 064.9886 219.0071 0013010 293.8065 069.6132 16.44611049 9028
SPROUT
1 39770U 14029E 14212.81149365 .00000101 00000-0 19115-4 0 858
2 39770 097.8744 309.2833 0010277 158.0556 202.1106 14.82664144 10151
POPSAT-HIP1
1 40028U 14033U 14212.88861032 .00001004 00000-0 12360-3 0 1229
2 40028 097.9814 107.6144 0015461 143.6331 216.5953 14.85123166 6212
EO-80
1 40032U 14033Y 14212.76032527 .00000753 00000-0 94880-4 0 1161
2 40032 097.9807 107.4533 0012686 140.0410 220.1773 14.84892614 6204
VELOX-1
1 40057U 14034E 14212.85744049 .00000824 00000-0 13331-3 0 1089
2 40057 098.2505 280.5627 0011940 172.7544 187.3834 14.73999288 4662
DAURIA DX 1
1 40071U 14037C 14212.85856468 .00000367 00000-0 56780-4 0 792
2 40071 098.4006 265.5110 0008751 175.3873 184.7398 14.79514939 3416
OBJECT F
1 40074U 14037F 14212.77755043 .00000792 00000-0 11135-3 0 812
2 40074 098.4017 265.4626 0005293 174.9046 185.2210 14.80384980 3408
OBJECT G
1 40075U 14037G 14212.77756993 .00000437 00000-0 64831-4 0 827
2 40075 098.4013 265.4605 0005403 192.8841 167.2221 14.80376191 3404
